^^
Your Local Weather - Clay, NY Station Historical Data
Daily Summary for February 21, 2017 Units:  English    Metric   Both
« Previous Day
Next Day »
Daily Weekly Monthly Yearly Custom
  High: Low: Average:
Temperature: 47.7 °F 21.8 °F 36.3 °F
Dew Point: 35.2 °F 16.6 °F 22.6 °F
Humidity: 89% 35% 61%
Wind Speed: 6.0mph 0.0mph 2.4mph
Wind Gust: 10.0mph - -
Wind- - ESE
Pressure: 30.34 in 29.96 in -
Precipitation: 0.01 in    
Historical Graphs
 
 
Tabular Data for February 21, 2017
Time Temperature Dew Point Pressure Wind Wind Speed Wind Gust Humidity Rainfall Rate (Hourly) solar
00:06 21.8 °F 16.9 °F 30.34 in Calm     81% 0.00 in 0 W/m2
00:12 21.8 °F 17.2 °F 30.34 in Calm     82% 0.00 in 0 W/m2
00:18 21.9 °F 17.2 °F 30.34 in Calm     82% 0.00 in 0 W/m2
00:26 21.8 °F 17.4 °F 30.34 in Calm     83% 0.00 in 0 W/m2
00:32 22.0 °F 17.6 °F 30.33 in Calm   2.0 mph 83% 0.00 in 0 W/m2
00:38 22.0 °F 17.6 °F 30.33 in Calm     83% 0.00 in 0 W/m2
00:45 21.9 °F 17.2 °F 30.32 in Calm     82% 0.00 in 0 W/m2
00:56 21.8 °F 17.4 °F 30.32 in Calm     83% 0.00 in 0 W/m2
01:06 21.9 °F 17.5 °F 30.32 in Calm     83% 0.00 in 0 W/m2
01:12 22.2 °F 17.8 °F 30.31 in Calm     83% 0.00 in 0 W/m2
01:18 22.4 °F 18.0 °F 30.31 in Calm     83% 0.00 in 0 W/m2
01:26 22.4 °F 17.7 °F 30.31 in Calm     82% 0.00 in 0 W/m2
01:32 22.7 °F 17.7 °F 30.31 in NE 1.0 mph 2.0 mph 81% 0.00 in 0 W/m2
01:38 23.3 °F 17.7 °F 30.30 in ENE 1.0 mph 1.0 mph 79% 0.00 in 0 W/m2
01:46 23.5 °F 17.6 °F 30.29 in Calm     78% 0.00 in 0 W/m2
01:52 23.6 °F 17.4 °F 30.31 in Calm     77% 0.00 in 0 W/m2
01:58 23.7 °F 17.2 °F 30.31 in Calm     76% 0.00 in 0 W/m2
02:04 23.6 °F 17.1 °F 30.31 in Calm     76% 0.00 in 0 W/m2
02:10 23.4 °F 17.3 °F 30.32 in Calm     77% 0.00 in 0 W/m2
02:16 23.1 °F 17.3 °F 30.30 in Calm   2.0 mph 78% 0.00 in 0 W/m2
02:28 22.7 °F 17.2 °F 30.29 in East 1.0 mph 3.0 mph 79% 0.00 in 0 W/m2
02:36 22.8 °F 17.3 °F 30.29 in ENE 2.0 mph 5.0 mph 79% 0.00 in 0 W/m2
02:42 23.4 °F 17.6 °F 30.28 in East 3.0 mph 5.0 mph 78% 0.00 in 0 W/m2
02:48 23.8 °F 17.3 °F 30.27 in East 3.0 mph 5.0 mph 76% 0.00 in 0 W/m2
02:56 24.2 °F 17.4 °F 30.28 in East 2.0 mph 2.0 mph 75% 0.00 in 0 W/m2
03:04 24.5 °F 17.7 °F 30.29 in ESE 1.0 mph 1.0 mph 75% 0.00 in 0 W/m2
03:10 24.6 °F 17.8 °F 30.29 in Calm     75% 0.00 in 0 W/m2
03:16 24.6 °F 17.5 °F 30.30 in Calm     74% 0.00 in 0 W/m2
03:22 24.5 °F 17.4 °F 30.30 in Calm     74% 0.00 in 0 W/m2
03:28 24.2 °F 17.7 °F 30.30 in Calm   2.0 mph 76% 0.00 in 0 W/m2
03:36 24.0 °F 17.8 °F 30.29 in ENE 2.0 mph 2.0 mph 77% 0.00 in 0 W/m2
03:42 23.9 °F 18.0 °F 30.28 in ENE 2.0 mph 3.0 mph 78% 0.00 in 0 W/m2
03:48 24.0 °F 18.1 °F 30.28 in East 2.0 mph 2.0 mph 78% 0.00 in 0 W/m2
03:56 24.2 °F 18.0 °F 30.28 in ENE 2.0 mph 3.0 mph 77% 0.00 in 0 W/m2
04:04 24.5 °F 18.3 °F 30.27 in East 3.0 mph 3.0 mph 77% 0.00 in 0 W/m2
04:10 24.5 °F 18.0 °F 30.28 in East 3.0 mph 3.0 mph 76% 0.00 in 0 W/m2
04:16 24.5 °F 18.0 °F 30.28 in East 2.0 mph 3.0 mph 76% 0.00 in 0 W/m2
04:22 24.5 °F 18.0 °F 30.28 in East 2.0 mph 2.0 mph 76% 0.00 in 0 W/m2
04:28 24.4 °F 17.9 °F 30.27 in ENE 2.0 mph 2.0 mph 76% 0.00 in 0 W/m2
04:37 24.3 °F 18.1 °F 30.25 in East 2.0 mph 3.0 mph 77% 0.00 in 0 W/m2
04:46 24.5 °F 18.0 °F 30.25 in East 4.0 mph 4.0 mph 76% 0.00 in 0 W/m2
04:52 24.7 °F 17.9 °F 30.25 in ENE 4.0 mph 5.0 mph 75% 0.00 in 0 W/m2
04:58 24.9 °F 17.8 °F 30.24 in ENE 4.0 mph 4.0 mph 74% 0.00 in 0 W/m2
05:06 24.9 °F 17.8 °F 30.24 in ENE 4.0 mph 4.0 mph 74% 0.00 in 0 W/m2
05:12 25.0 °F 17.9 °F 30.24 in SE 3.0 mph 4.0 mph 74% 0.00 in 0 W/m2
05:18 25.1 °F 18.0 °F 30.24 in SE 3.0 mph 3.0 mph 74% 0.00 in 0 W/m2
05:26 25.1 °F 18.0 °F 30.25 in NE 2.0 mph 2.0 mph 74% 0.00 in 0 W/m2
05:32 25.1 °F 17.7 °F 30.24 in ENE 2.0 mph 7.0 mph 73% 0.00 in 0 W/m2
05:38 25.3 °F 17.9 °F 30.23 in East 3.0 mph 3.0 mph 73% 0.00 in 0 W/m2
05:46 25.4 °F 17.6 °F 30.23 in East 3.0 mph 5.0 mph 72% 0.00 in 0 W/m2
05:52 25.5 °F 17.7 °F 30.24 in East 3.0 mph 5.0 mph 72% 0.00 in 0 W/m2
05:58 25.5 °F 17.7 °F 30.24 in ENE 3.0 mph 5.0 mph 72% 0.00 in 0 W/m2
06:04 25.6 °F 17.8 °F 30.24 in ENE 3.0 mph 3.0 mph 72% 0.00 in 0 W/m2
06:10 25.6 °F 17.5 °F 30.24 in NE 3.0 mph 3.0 mph 71% 0.00 in 0 W/m2
06:16 25.6 °F 17.8 °F 30.24 in East 3.0 mph 3.0 mph 72% 0.00 in 0 W/m2
06:22 25.7 °F 17.6 °F 30.24 in East 3.0 mph 6.0 mph 71% 0.00 in 0 W/m2
06:28 25.8 °F 17.7 °F 30.23 in East 3.0 mph 5.0 mph 71% 0.00 in 0 W/m2
06:36 25.9 °F 17.5 °F 30.23 in ENE 4.0 mph 4.0 mph 70% 0.00 in 0 W/m2
06:42 26.0 °F 17.6 °F 30.22 in ENE 4.0 mph 5.0 mph 70% 0.00 in 5 W/m2
06:48 26.1 °F 17.6 °F 30.23 in ESE 3.0 mph 4.0 mph 70% 0.00 in 11 W/m2
06:56 26.1 °F 17.6 °F 30.22 in East 3.0 mph 5.0 mph 70% 0.00 in 11 W/m2
07:06 26.4 °F 17.9 °F 30.22 in ENE 3.0 mph 3.0 mph 70% 0.00 in 23 W/m2
07:12 26.5 °F 18.0 °F 30.22 in East 3.0 mph 3.0 mph 70% 0.00 in 23 W/m2
07:18 26.6 °F 17.8 °F 30.22 in ENE 4.0 mph 4.0 mph 69% 0.00 in 28 W/m2
07:26 26.8 °F 18.0 °F 30.23 in ENE 3.0 mph 3.0 mph 69% 0.00 in 33 W/m2
07:32 27.0 °F 17.8 °F 30.22 in NNE 3.0 mph 5.0 mph 68% 0.00 in 39 W/m2
07:38 27.0 °F 18.2 °F 30.22 in NE 3.0 mph 6.0 mph 69% 0.00 in 47 W/m2
07:46 27.2 °F 17.7 °F 30.22 in ENE 3.0 mph 4.0 mph 67% 0.00 in 47 W/m2
07:52 27.4 °F 17.9 °F 30.23 in ENE 2.0 mph 4.0 mph 67% 0.00 in 49 W/m2
07:58 27.5 °F 18.3 °F 30.22 in ENE 2.0 mph 3.0 mph 68% 0.00 in 51 W/m2
08:04 27.6 °F 18.1 °F 30.22 in ENE 2.0 mph 3.0 mph 67% 0.00 in 62 W/m2
08:09 27.7 °F 18.2 °F 30.21 in ENE 3.0 mph 5.0 mph 67% 0.00 in 77 W/m2
08:16 28.0 °F 18.5 °F 30.20 in East 4.0 mph 5.0 mph 67% 0.00 in 104 W/m2
08:22 28.2 °F 18.3 °F 30.20 in ENE 4.0 mph 5.0 mph 66% 0.00 in 118 W/m2
08:28 28.5 °F 18.2 °F 30.20 in East 4.0 mph 4.0 mph 65% 0.00 in 113 W/m2
08:36 28.9 °F 18.2 °F 30.18 in ENE 4.0 mph 5.0 mph 64% 0.00 in 111 W/m2
08:42 29.1 °F 18.4 °F 30.18 in ENE 4.0 mph 5.0 mph 64% 0.00 in 118 W/m2
08:48 29.4 °F 18.3 °F 30.18 in East 3.0 mph 6.0 mph 63% 0.00 in 137 W/m2
08:56 29.8 °F 18.7 °F 30.18 in ENE 2.0 mph 3.0 mph 63% 0.00 in 149 W/m2
09:05 30.4 °F 18.5 °F 30.18 in ESE 3.0 mph 4.0 mph 61% 0.00 in 167 W/m2
09:12 30.8 °F 18.9 °F 30.18 in SE 3.0 mph 3.0 mph 61% 0.00 in 188 W/m2
09:18 31.3 °F 19.0 °F 30.18 in East 2.0 mph 6.0 mph 60% 0.00 in 211 W/m2
09:26 31.9 °F 18.4 °F 30.18 in ENE 3.0 mph 4.0 mph 57% 0.00 in 218 W/m2
09:32 32.2 °F 18.7 °F 30.18 in East 3.0 mph 4.0 mph 57% 0.00 in 230 W/m2
09:38 32.6 °F 19.0 °F 30.17 in ESE 3.0 mph 7.0 mph 57% 0.00 in 244 W/m2
09:46 33.3 °F 19.3 °F 30.17 in ENE 3.0 mph 4.0 mph 56% 0.00 in 264 W/m2
09:52 33.5 °F 19.0 °F 30.17 in ENE 4.0 mph 4.0 mph 55% 0.00 in 230 W/m2
09:58 33.8 °F 18.9 °F 30.17 in SSE 4.0 mph 4.0 mph 54% 0.00 in 206 W/m2
10:04 34.2 °F 18.8 °F 30.17 in ENE 3.0 mph 3.0 mph 53% 0.00 in 221 W/m2
10:10 34.6 °F 18.8 °F 30.15 in East 4.0 mph 6.0 mph 52% 0.00 in 255 W/m2
10:18 35.5 °F 19.1 °F 30.15 in ENE 4.0 mph 4.0 mph 51% 0.00 in 369 W/m2
10:26 36.3 °F 19.4 °F 30.14 in East 4.0 mph 4.0 mph 50% 0.00 in 283 W/m2
10:32 37.1 °F 19.7 °F 30.13 in East 3.0 mph 4.0 mph 49% 0.00 in 257 W/m2
10:38 37.6 °F 19.2 °F 30.13 in ENE 3.0 mph 3.0 mph 47% 0.00 in 220 W/m2
10:45 38.9 °F 18.3 °F 30.12 in SSE 3.0 mph 5.0 mph 43% 0.00 in 283 W/m2
10:52 39.7 °F 17.3 °F 30.12 in SSE 3.0 mph 8.0 mph 40% 0.00 in 292 W/m2
10:58 40.2 °F 17.8 °F 30.13 in East 3.0 mph 3.0 mph 40% 0.00 in 241 W/m2
11:06 40.7 °F 18.8 °F 30.12 in SE 2.0 mph 2.0 mph 41% 0.00 in 236 W/m2
11:12 41.2 °F 17.5 °F 30.12 in ESE 3.0 mph 5.0 mph 38% 0.00 in 272 W/m2
11:18 41.6 °F 16.6 °F 30.12 in SSE 4.0 mph 4.0 mph 36% 0.00 in 316 W/m2
11:26 42.0 °F 18.2 °F 30.12 in SE 4.0 mph 4.0 mph 38% 0.00 in 355 W/m2
11:32 42.2 °F 17.1 °F 30.11 in SSE 4.0 mph 8.0 mph 36% 0.00 in 313 W/m2
11:38 42.7 °F 17.6 °F 30.10 in ESE 5.0 mph 5.0 mph 36% 0.00 in 341 W/m2
11:46 43.4 °F 19.5 °F 30.10 in South 4.0 mph 5.0 mph 38% 0.00 in 341 W/m2
11:58 44.1 °F 18.8 °F 30.10 in SSE 6.0 mph 6.0 mph 36% 0.00 in 417 W/m2
12:04 44.4 °F 19.1 °F 30.09 in ESE 6.0 mph 9.0 mph 36% 0.00 in 345 W/m2
12:10 44.4 °F 19.7 °F 30.08 in SE 5.0 mph 5.0 mph 37% 0.00 in 367 W/m2
12:15 44.4 °F 19.7 °F 30.08 in SSE 5.0 mph 8.0 mph 37% 0.00 in 325 W/m2
12:22 44.2 °F 19.5 °F 30.07 in SSE 6.0 mph 7.0 mph 37% 0.00 in 287 W/m2
12:28 44.1 °F 19.5 °F 30.07 in South 6.0 mph 7.0 mph 37% 0.00 in 285 W/m2
12:34 44.4 °F 21.6 °F 30.06 in SSE 4.0 mph 6.0 mph 40% 0.00 in 278 W/m2
12:40 44.7 °F 20.6 °F 30.06 in SE 3.0 mph 7.0 mph 38% 0.00 in 276 W/m2
12:45 44.7 °F 19.3 °F 30.06 in SSE 4.0 mph 7.0 mph 36% 0.00 in 265 W/m2
12:52 44.7 °F 20.6 °F 30.05 in SSE 5.0 mph 5.0 mph 38% 0.00 in 306 W/m2
12:58 44.8 °F 20.1 °F 30.06 in SSE 5.0 mph 8.0 mph 37% 0.00 in 318 W/m2
13:04 45.2 °F 21.1 °F 30.06 in SSE 5.0 mph 7.0 mph 38% 0.00 in 292 W/m2
13:09 45.3 °F 19.9 °F 30.05 in SE 4.0 mph 7.0 mph 36% 0.00 in 322 W/m2
13:16 45.4 °F 20.0 °F 30.05 in SE 5.0 mph 7.0 mph 36% 0.00 in 311 W/m2
13:22 46.2 °F 20.0 °F 30.05 in South 4.0 mph 5.0 mph 35% 0.00 in 462 W/m2
13:28 46.7 °F 21.1 °F 30.04 in SSE 4.0 mph 6.0 mph 36% 0.00 in 413 W/m2
13:33 46.4 °F 22.1 °F 30.04 in SE 5.0 mph 10.0 mph 38% 0.00 in 327 W/m2
13:40 46.3 °F 20.1 °F 30.04 in SSE 6.0 mph 6.0 mph 35% 0.00 in 385 W/m2
13:46 46.6 °F 21.7 °F 30.04 in SSW 4.0 mph 6.0 mph 37% 0.00 in 346 W/m2
13:52 47.0 °F 21.4 °F 30.04 in SSE 4.0 mph 4.0 mph 36% 0.00 in 267 W/m2
13:58 46.8 °F 21.2 °F 30.03 in South 5.0 mph 5.0 mph 36% 0.00 in 287 W/m2
14:04 46.8 °F 21.2 °F 30.03 in SSE 6.0 mph 6.0 mph 36% 0.00 in 264 W/m2
14:10 46.4 °F 21.5 °F 30.02 in SSE 6.0 mph 8.0 mph 37% 0.00 in 260 W/m2
14:16 46.4 °F 20.9 °F 30.02 in South 6.0 mph 8.0 mph 36% 0.00 in 230 W/m2
14:22 46.5 °F 22.8 °F 30.01 in South 4.0 mph 5.0 mph 39% 0.00 in 229 W/m2
14:28 46.7 °F 21.1 °F 30.01 in South 5.0 mph 6.0 mph 36% 0.00 in 225 W/m2
14:34 46.8 °F 22.5 °F 30.01 in SSE 5.0 mph 5.0 mph 38% 0.00 in 220 W/m2
14:40 46.7 °F 21.1 °F 30.01 in SSE 4.0 mph 5.0 mph 36% 0.00 in 241 W/m2
14:45 47.1 °F 21.5 °F 30.01 in SSW 4.0 mph 6.0 mph 36% 0.00 in 260 W/m2
14:52 47.5 °F 21.2 °F 30.01 in SSE 3.0 mph 4.0 mph 35% 0.00 in 250 W/m2
14:58 47.7 °F 23.9 °F 30.01 in South 3.0 mph 7.0 mph 39% 0.00 in 239 W/m2
15:03 47.7 °F 21.3 °F 30.00 in SE 2.0 mph 5.0 mph 35% 0.00 in 255 W/m2
15:10 47.6 °F 21.9 °F 30.00 in SE 4.0 mph 4.0 mph 36% 0.00 in 237 W/m2
15:16 47.6 °F 22.6 °F 30.01 in South 4.0 mph 5.0 mph 37% 0.00 in 171 W/m2
15:22 47.3 °F 22.3 °F 30.01 in SSE 4.0 mph 5.0 mph 37% 0.00 in 144 W/m2
15:28 47.2 °F 22.2 °F 30.01 in SSE 4.0 mph 6.0 mph 37% 0.00 in 142 W/m2
15:34 47.4 °F 22.4 °F 30.00 in SSE 4.0 mph 5.0 mph 37% 0.00 in 162 W/m2
15:40 47.4 °F 22.4 °F 30.00 in SSE 4.0 mph 4.0 mph 37% 0.00 in 155 W/m2
15:45 47.4 °F 22.4 °F 30.00 in South 4.0 mph 7.0 mph 37% 0.00 in 155 W/m2
15:52 47.5 °F 22.5 °F 30.00 in SSW 5.0 mph 6.0 mph 37% 0.00 in 127 W/m2
15:58 47.4 °F 23.0 °F 30.00 in South 5.0 mph 7.0 mph 38% 0.00 in 102 W/m2
16:04 47.5 °F 22.5 °F 30.00 in SSE 5.0 mph 6.0 mph 37% 0.00 in 93 W/m2
16:10 47.4 °F 22.4 °F 29.99 in SSW 5.0 mph 5.0 mph 37% 0.00 in 77 W/m2
16:15 47.2 °F 22.9 °F 29.98 in South 5.0 mph 10.0 mph 38% 0.00 in 70 W/m2
16:22 47.3 °F 22.9 °F 29.98 in South 6.0 mph 8.0 mph 38% 0.00 in 77 W/m2
16:28 47.3 °F 22.9 °F 29.98 in SE 5.0 mph 8.0 mph 38% 0.00 in 65 W/m2
16:34 47.1 °F 24.6 °F 29.98 in SE 4.0 mph 5.0 mph 41% 0.00 in 60 W/m2
16:40 47.0 °F 23.3 °F 29.98 in SE 4.0 mph 5.0 mph 39% 0.00 in 56 W/m2
16:46 47.1 °F 22.8 °F 29.98 in South 3.0 mph 5.0 mph 38% 0.00 in 53 W/m2
16:52 47.1 °F 22.8 °F 29.98 in SSE 2.0 mph 5.0 mph 38% 0.00 in 46 W/m2
16:58 47.1 °F 22.8 °F 29.98 in SSE 3.0 mph 5.0 mph 38% 0.00 in 39 W/m2
17:04 47.2 °F 22.9 °F 29.98 in SSE 4.0 mph 5.0 mph 38% 0.00 in 32 W/m2
17:10 47.1 °F 22.1 °F 29.98 in SSE 5.0 mph 5.0 mph 37% 0.00 in 26 W/m2
17:16 47.1 °F 22.8 °F 29.98 in SSE 4.0 mph 5.0 mph 38% 0.00 in 21 W/m2
17:22 47.1 °F 22.8 °F 29.99 in SSE 5.0 mph 5.0 mph 38% 0.00 in 12 W/m2
17:28 47.0 °F 22.7 °F 29.99 in South 4.0 mph 5.0 mph 38% 0.00 in 9 W/m2
17:34 46.8 °F 23.1 °F 29.99 in South 3.0 mph 4.0 mph 39% 0.00 in 5 W/m2
17:40 46.6 °F 23.5 °F 29.99 in SSE 3.0 mph 3.0 mph 40% 0.00 in 0 W/m2
17:45 46.6 °F 23.5 °F 29.99 in SSE 4.0 mph 4.0 mph 40% 0.00 in 0 W/m2
17:52 46.3 °F 23.3 °F 29.98 in SE 3.0 mph 3.0 mph 40% 0.00 in 0 W/m2
17:58 46.2 °F 23.2 °F 29.99 in SSE 2.0 mph 4.0 mph 40% 0.00 in 0 W/m2
18:04 46.3 °F 23.3 °F 29.99 in ESE 3.0 mph 3.0 mph 40% 0.00 in 0 W/m2
18:10 46.1 °F 23.7 °F 29.99 in SE 2.0 mph 2.0 mph 41% 0.00 in 0 W/m2
18:16 46.1 °F 23.1 °F 29.99 in SE 2.0 mph 2.0 mph 40% 0.00 in 0 W/m2
18:22 45.9 °F 24.1 °F 29.98 in SE 2.0 mph 3.0 mph 42% 0.00 in 0 W/m2
18:28 46.0 °F 23.6 °F 29.98 in SE 3.0 mph 4.0 mph 41% 0.00 in 0 W/m2
18:34 46.1 °F 23.7 °F 29.99 in South 4.0 mph 6.0 mph 41% 0.00 in 0 W/m2
18:40 46.2 °F 24.3 °F 29.99 in SE 3.0 mph 3.0 mph 42% 0.00 in 0 W/m2
18:45 46.0 °F 24.2 °F 30.00 in SE 2.0 mph 4.0 mph 42% 0.00 in 0 W/m2
18:52 45.8 °F 24.5 °F 30.00 in SSE 2.0 mph 2.0 mph 43% 0.00 in 0 W/m2
18:58 45.3 °F 26.2 °F 30.00 in SSE 1.0 mph 3.0 mph 47% 0.00 in 0 W/m2
19:03 45.1 °F 25.5 °F 30.01 in SSE 1.0 mph 3.0 mph 46% 0.00 in 0 W/m2
19:10 45.0 °F 27.0 °F 30.00 in Calm     49% 0.00 in 0 W/m2
19:16 44.4 °F 27.9 °F 30.00 in Calm   1.0 mph 52% 0.00 in 0 W/m2
19:22 43.5 °F 27.5 °F 29.99 in SSE 1.0 mph 1.0 mph 53% 0.00 in 0 W/m2
19:28 43.3 °F 27.3 °F 30.00 in SSE 1.0 mph 2.0 mph 53% 0.00 in 0 W/m2
19:34 43.2 °F 29.4 °F 29.99 in Calm   1.0 mph 58% 0.00 in 0 W/m2
19:39 42.0 °F 31.1 °F 29.99 in Calm     65% 0.00 in 0 W/m2
19:46 41.4 °F 32.0 °F 29.98 in Calm   1.0 mph 69% 0.00 in 0 W/m2
19:52 41.1 °F 32.1 °F 29.98 in SSE 1.0 mph 1.0 mph 70% 0.00 in 0 W/m2
19:58 41.3 °F 31.9 °F 29.98 in SSE 1.0 mph 1.0 mph 69% 0.00 in 0 W/m2
20:04 41.4 °F 31.6 °F 29.99 in Calm     68% 0.00 in 0 W/m2
20:10 41.4 °F 32.3 °F 29.99 in Calm     70% 0.00 in 0 W/m2
20:15 41.1 °F 32.8 °F 30.00 in Calm     72% 0.00 in 0 W/m2
20:22 40.6 °F 33.0 °F 30.00 in Calm     74% 0.00 in 0 W/m2
20:28 39.9 °F 32.9 °F 29.99 in Calm     76% 0.00 in 0 W/m2
20:33 39.4 °F 33.4 °F 29.99 in Calm     79% 0.00 in 0 W/m2
20:40 38.9 °F 33.6 °F 30.00 in Calm     81% 0.00 in 0 W/m2
20:46 38.5 °F 33.5 °F 30.00 in Calm     82% 0.00 in 0 W/m2
20:52 38.1 °F 33.7 °F 30.00 in Calm     84% 0.00 in 0 W/m2
20:58 38.0 °F 33.9 °F 30.00 in Calm     85% 0.00 in 0 W/m2
21:04 37.9 °F 34.1 °F 30.00 in Calm   1.0 mph 86% 0.00 in 0 W/m2
21:09 37.3 °F 33.5 °F 29.99 in SSE 1.0 mph 1.0 mph 86% 0.00 in 0 W/m2
21:16 37.3 °F 33.8 °F 29.99 in Calm   1.0 mph 87% 0.00 in 0 W/m2
21:22 37.6 °F 34.4 °F 29.99 in Calm   1.0 mph 88% 0.00 in 0 W/m2
21:28 38.0 °F 34.8 °F 29.99 in Calm   2.0 mph 88% 0.00 in 0 W/m2
21:33 38.2 °F 35.2 °F 29.98 in Calm     89% 0.00 in 0 W/m2
21:40 38.1 °F 34.9 °F 29.98 in Calm     88% 0.00 in 0 W/m2
21:46 38.1 °F 34.9 °F 29.99 in Calm     88% 0.00 in 0 W/m2
21:52 38.1 °F 34.9 °F 29.99 in Calm     88% 0.00 in 0 W/m2
21:58 38.2 °F 35.0 °F 29.98 in Calm     88% 0.00 in 0 W/m2
22:04 38.2 °F 35.0 °F 29.98 in Calm     88% 0.00 in 0 W/m2
22:10 38.4 °F 35.2 °F 29.98 in Calm     88% 0.00 in 0 W/m2
22:16 38.2 °F 34.7 °F 29.98 in Calm   1.0 mph 87% 0.00 in 0 W/m2
22:22 38.2 °F 34.7 °F 29.97 in SE 1.0 mph 1.0 mph 87% 0.00 in 0 W/m2
22:28 38.6 °F 34.8 °F 29.97 in SE 1.0 mph 1.0 mph 86% 0.00 in 0 W/m2
22:34 39.1 °F 34.7 °F 29.97 in SE 1.0 mph 1.0 mph 84% 0.00 in 0 W/m2
22:40 39.3 °F 34.6 °F 29.97 in Calm     83% 0.00 in 0 W/m2
22:46 39.3 °F 34.6 °F 29.97 in Calm     83% 0.00 in 0 W/m2
22:52 39.4 °F 34.4 °F 29.97 in Calm     82% 0.00 in 0 W/m2
22:58 39.4 °F 34.4 °F 29.97 in Calm     82% 0.00 in 0 W/m2
23:04 39.0 °F 34.3 °F 29.97 in Calm     83% 0.00 in 0 W/m2
23:10 38.6 °F 34.2 °F 29.97 in Calm   1.0 mph 84% 0.00 in 0 W/m2
23:16 38.9 °F 34.5 °F 29.97 in East 1.0 mph 2.0 mph 84% 0.00 in 0 W/m2
23:22 39.1 °F 34.4 °F 29.97 in East 1.0 mph 1.0 mph 83% 0.00 in 0 W/m2
23:28 38.9 °F 34.2 °F 29.96 in East 1.0 mph 2.0 mph 83% 0.00 in 0 W/m2
23:34 38.5 °F 34.1 °F 29.96 in East 1.0 mph 1.0 mph 84% 0.00 in 0 W/m2
23:40 38.5 °F 34.1 °F 29.96 in ENE 1.0 mph 2.0 mph 84% 0.00 in 0 W/m2
23:46 38.2 °F 33.8 °F 29.96 in ENE 1.0 mph 2.0 mph 84% 0.00 in 0 W/m2
23:52 38.2 °F 33.8 °F 29.96 in ENE 1.0 mph 1.0 mph 84% 0.00 in 0 W/m2
23:58 38.0 °F 33.9 °F 29.96 in ENE 1.0 mph 1.0 mph 85% 0.00 in 0 W/m2
Country Meadow, Clay, NY, USA
Compliments of Weather Underground - 2 mb